"Pseudo-MPEC" for C11ERW5

Created 2025 Feb 5 14:31:07 UT using Find_Orb

Click here for an explanation of pseudo-MPECs

 
 Astrometry: 
     C11ERW5*HC2025 02 04.42426110 10 54.840+48 35 28.80   ~24B2 21.54GVNEOCPV00
     C11ERW5 HC2025 02 04.42988710 11 22.100+48 37 36.60   ~24B2 21.63GVNEOCPV00
     C11ERW5 HC2025 02 04.43550010 11 49.550+48 39 44.50   ~24B2       VNEOCPV00
     C11ERW5 HC2025 02 04.44111210 12 17.220+48 41 51.90   ~24B2 20.65GVNEOCPV00
     C11ERW5 mC2025 02 04.46682510 14 25.757+48 51 29.63   ~24BV 19.88GVNEOCPV00
     C11ERW5 mC2025 02 04.46721210 14 27.686+48 51 38.27   ~24BV 19.98GVNEOCPV00
     C11ERW5 mC2025 02 04.46759110 14 29.627+48 51 46.76   ~24BV 19.97GVNEOCPV00
     C11ERW5 mC2025 02 04.46797010 14 31.535+48 51 55.15   ~24BV 19.83GVNEOCPV00
     C11ERW5 KB2025 02 04.75514 10 44 30.85 +50 33 37.0    ~24J2 21.7 RZNEOCP106
     C11ERW5 KB2025 02 04.75978 10 45 02.36 +50 35 25.8    ~24J2       ZNEOCP106
     C11ERW5 KB2025 02 04.76427 10 45 32.96 +50 37 10.4    ~24J2       ZNEOCP106
     C11ERW5 KB2025 02 04.76876 10 46 03.66 +50 38 54.8    ~24J2 21.6 RZNEOCP106
     C11ERW5 KC2025 02 04.85472110 56 04.418+51 09 25.31   ~24LV 19.9 GWNEOCPJ95
     C11ERW5 KC2025 02 04.86009710 56 43.490+51 11 22.85   ~24LV 19.5 GWNEOCPJ95
     C11ERW5 KB2025 02 04.86339210 57 13.48 +51 13 24.6    ~24LV 19.3 GVNEOCPI93
     C11ERW5 KC2025 02 04.86611510 57 27.386+51 13 33.71   ~24LV 20.1 GWNEOCPJ95
     C11ERW5 KB2025 02 04.87022610 58 03.35 +51 15 54.1    ~24LV 19.7 GVNEOCPI93
     C11ERW5 KC2025 02 04.87135010 58 05.664+51 15 27.47   ~24LV 19.3 GWNEOCPJ95
     C11ERW5 KB2025 02 04.87702310 58 53.10 +51 18 22.0    ~24LV 19.6 GVNEOCPI93
     C11ERW5 KB2025 02 04.90215 11 01 44.24 +51 29 21.9    ~24M2 19.7 GXNEOCPM45
     C11ERW5 KB2025 02 04.90332 11 01 52.82 +51 29 45.7    ~24M2 19.4 GXNEOCPM45
     C11ERW5 KB2025 02 04.90442 11 02 00.85 +51 30 08.6    ~24M2 19.5 GXNEOCPM45
     C11ERW5 KC2025 02 04.92304211 04 29.64 +51 35 40.5    ~24N2 19.6 GVNEOCP104
     C11ERW5 KC2025 02 04.92323611 04 31.04 +51 35 44.0    ~24N2 19.3 GVNEOCP104
     C11ERW5 1C2025 02 04.93492811 05 53.830+51 39 07.80   ~24Ml 20.4 GWNEOCP246
     C11ERW5 1C2025 02 04.93560611 05 58.810+51 39 22.00   ~24Ml       WNEOCP246
     C11ERW5 1C2025 02 04.93583211 06 00.780+51 39 26.40   ~24Ml 20.6 GWNEOCP246
     C11ERW5 1C2025 02 04.93605811 06 02.100+51 39 29.80   ~24Ml       WNEOCP246
     C11ERW5 1C2025 02 04.94026311 06 33.930+51 40 53.20   ~24N2 20.0 GWNEOCP246
     C11ERW5 1C2025 02 04.94050011 06 35.830+51 40 58.20   ~24N2       WNEOCP246
     C11ERW5 1C2025 02 04.94073811 06 37.550+51 41 03.50   ~24N2       WNEOCP246
     C11ERW5 1C2025 02 04.94097611 06 39.450+51 41 08.10   ~24N2 20.3 GWNEOCP246
     C11ERW5 1C2025 02 04.94145011 06 43.010+51 41 16.60   ~24N2 20.5 GWNEOCP246
     C11ERW5 1C2025 02 04.94168811 06 44.700+51 41 22.50   ~24N2       WNEOCP246
     C11ERW5 KB2025 02 05.00300711 14 52.69 +52 00 39.0    ~250l 19.0 GXNEOCP958
     C11ERW5 KB2025 02 05.00626111 15 18.24 +52 01 37.9    ~250l 18.8 GXNEOCP958
     C11ERW5 KB2025 02 05.00964511 15 45.11 +52 02 34.9    ~250lx19.3 GXNEOCP958
     C11ERW5 KC2025 02 05.05865711 22 05.36 +52 16 24.3    ~252H 19.2 GVNEOCPL01
     C11ERW5 KC2025 02 05.05985911 22 15.17 +52 16 42.4    ~252H 19.3 GVNEOCPL01
     C11ERW5 KC2025 02 05.06106611 22 25.00 +52 17 01.1    ~252H 19.2 GVNEOCPL01
     C11ERW5 KC2025 02 05.06227311 22 34.88 +52 17 19.9    ~252H 19.3 GVNEOCPL01
     C11ERW5 KC2025 02 05.06347711 22 44.74 +52 17 38.0    ~252H 19.3 GVNEOCPL01
     C11ERW5 KB2025 02 05.09187611 26 44.506+52 24 29.45   ~258l       WNEOCP204
     C11ERW5 KB2025 02 05.09870611 27 41.717+52 26 04.70   ~258l 19.6 GWNEOCP204
     C11ERW5  C2025 02 05.23060011 48 52.180+52 49 16.30   ~256H 19.3 RVNEOCP291
     C11ERW5  C2025 02 05.23196011 49 04.980+52 49 32.20   ~256H 19.5 RVNEOCP291
     C11ERW5  C2025 02 05.23334011 49 17.850+52 49 48.10   ~256H 19.3 RVNEOCP291

Station data:
(104) San Marcello Pistoiese  (N44.064178 E10.803750)  Italy.  Observers P.
   Bacci, M. Maestripieri. Measurers P. Bacci, L. Tesi, G. Fagioli. 0.60-m
   reflector + CCD.
(106) Črni Vrh  (N45.945905 E14.071100)  Slovenia.  Observer J. Skvarč. 0.6-m
   f/3.3 Deltagraph + CCD.
(204) Schiaparelli Observatory  (N45.868292 E8.769720)  Italy.  Observer L.
   Buzzi. 0.84-m f/3.5 reflector + CCD.
(246) Klet Observatory-KLENOT  (N48.863991 E14.284760)  Czech Republic.
   Observer J. Ticha. Measurer M. Tichy. 1.06-m f/2.7 reflector + 2048x2048
   CCD.
(291) LPL/Spacewatch II  (N31.961669 W111.599905)  US/Arizona.  Observers J.
   V. Scotti, R. S. McMillan. 1.8-m f/2.7 reflector + CCD.
(958) Observatoire de Dax  (N43.693381 W1.030530)  France.  Observer P.
   Dupouy. 0.32-m Schmidt-Cassegrain.
(I93) St Pardon de Conques  (N44.558670 W0.202960)  France.  Observers F.
   Losse, W. D'Anna. Measurer F. Losse. 0.40-m f/3.7 reflector + CCD.
(J95) Great Shefford  (N51.474969 W1.447003)  UK/England.  Observer P.
   Birtwhistle. 0.41-m f/6.3 Schmidt-Cassegrain + CCD.
(L01) Višnjan Observatory, Tičan  (N45.290897 E13.749300)  Croatia.
   Observers K. Korlević, D. Pujagic, V. Dobos. Measurers D. Pujagic, K.
   Korlević. 1.0-m f/2.9 reflector + CCD.
(M45) Starhopper Observatory, Sfantu Gheorghe  (N45.865494 E25.768890)
   Romania.  Observer F. Ursache. 0.41-m f/7.5 reflector + CMO.
(V00) Kitt Peak-Bok  (N31.963125 W111.600190)  US/Arizona.  Observers T. A.
   Pruyne, B. M. Africano, E. J. Christensen, G. A. Farneth, D. C. Fuls, A.
   R. Gibbs, A. D. Grauer, H. Gröller, J. A. Johnson, R. A. Kowalski, S. M.
   Larson, G. J. Leonard, D. Rankin, R. L. Seaman, F. C. Shelly, K. W.
   Wierzchoś. 2.25-m reflector + 4x4K mosaic CCD.

Orbital elements:  C11ERW5
   Perihelion 2025 Mar 10.03960 +/- 0.00219 TT =  0:57:01 (JD 2460744.53960)
Epoch 2025 Feb  5.0 TT = JDT 2460711.5   Earth MOID: 0.0091   Ma: 0.0331
M 346.43794435 +/- 0.006            (J2000 ecliptic)             AutoNEOCP
n   0.41047876 +/- 0.00018          Peri.   76.36932 +/- 0.028
a   1.79311820 +/- 0.000524         Node   103.10683 +/- 0.026
e   0.4949418 +/- 0.000158          Incl.    0.90942 +/- 0.0007
P   2.401/877.008d         H 27.96  G  0.15   U  7.0
q 0.90562902 +/- 2.13e-5    Q 2.68060738 +/- 0.00107
46 of 47 observations 2025 Feb. 4-5 (19.4 hr); mean residual 0".53
Residuals in arcseconds: 
250204 V00  .52+  .13-    250204 I93  .24-  .11+    250204 246  .28+  .31-    
250204 V00  .61-  .75-    250204 J95  .11-  .42+    250204 246  .76-  .92+    
250204 V00  .71-  .53-    250204 I93  .59-  .11-    250205 958  .80+  .48+    
250204 V00  .09-  .36-    250204 M45  .27-  .37+    250205 958  .61-  .48+    
250204 V00  .31+  .07+    250204 M45  .32-  .09+    250205 958( .20+  3.4-)   
250204 V00  .01+  .09+    250204 M45  .77-  .40+    250205 L01  .05+  .30-    
250204 V00  .21+  .14+    250204 104  .56-  .12+    250205 L01  .01-  .66-    
250204 V00  .09+  .10+    250204 104  1.0-  .34-    250205 L01  .34-  .44-    
250204 106  1.0+  .70+    250204 246  1.0+  .29-    250205 L01  .28-  .06-    
250204 106  .77+  .68+    250204 246  .18-  .46+    250205 L01  .26-  .27-    
250204 106  .78+  .18+    250204 246  2.3+  .37+    250205 204  .26+  .09+    
250204 106  1.0+  .33-    250204 246  1.3-  .70-    250205 204  .03-  .04-    
250204 J95  .05+  .32-    250204 246  .65-  .36-    250205 291  .07+  .27-    
250204 J95  .02+  .18-    250204 246  .35+  .02-    250205 291  .62+  .16-    
250204 I93  .23-  .46+    250204 246  .40-  .59+    250205 291  .05+  .19-    
250204 J95  .11+  .12-    250204 246  .53+  .51+    

Ephemerides (geocentric):
Date (UTC) HH   RA             Dec           delta  r     elong  mag " sig PA
---- --------  ------------   ------------  ------ ------ -----  --- --------
2025 02 05 15  12 56 13.263   +52 41 24.21  .01116 0.9922 123.5 20.2 .145  75
2025 02 05 16  13 03 57.344   +52 30 57.83  .01108 0.9920 122.5 20.2 .181  81
2025 02 05 17  13 11 43.783   +52 18 27.82  .01100 0.9918 121.4 20.2 .220  86
2025 02 05 18  13 19 31.518   +52 03 51.99  .01093 0.9916 120.3 20.3 .264  90
2025 02 05 19  13 27 19.472   +51 47 08.85  .01087 0.9914 119.2 20.3 .311  94
2025 02 05 20  13 35 06.564   +51 28 17.64  .01081 0.9912 118.1 20.3 .361  97
2025 02 05 21  13 42 51.725   +51 07 18.37  .01076 0.9910 117.0 20.3 .415 100
2025 02 05 22  13 50 33.913   +50 44 11.84  .01071 0.9908 115.9 20.3 .472 102
2025 02 05 23  13 58 12.124   +50 18 59.59  .01067 0.9906 114.7 20.4 .532 104
2025 02 06 00  14 05 45.409   +49 51 43.95  .01063 0.9904 113.6 20.4 .596 106
2025 02 06 01  14 13 12.881   +49 22 28.00  .01059 0.9902 112.4 20.4 .662 108
2025 02 06 02  14 20 33.724   +48 51 15.47  .01057 .98999 111.2 20.5 .731 110
2025 02 06 03  14 27 47.201   +48 18 10.78  .01055 .98978 110.0 20.5 .803 112
2025 02 06 04  14 34 52.659   +47 43 18.91  .01053 .98958 108.9 20.5 .877 114
2025 02 06 05  14 41 49.527   +47 06 45.39  .01052 .98938 107.7 20.6 .953 115
2025 02 06 06  14 48 37.323   +46 28 36.19  .01052 .98917 106.5 20.6 1.03 117
2025 02 06 07  14 55 15.647   +45 48 57.65  .01052 .98897 105.3 20.6 1.11 118
2025 02 06 08  15 01 44.183   +45 07 56.44  .01052 .98877 104.1 20.7 1.19 120
2025 02 06 09  15 08 02.691   +44 25 39.44  .01054 .98856 102.9 20.7 1.27 121
2025 02 06 10  15 14 11.004   +43 42 13.70  .01055 .98836 101.7 20.8 1.36 122
2025 02 06 11  15 20 09.024   +42 57 46.35  .01058 .98816 100.5 20.8 1.44 123
2025 02 06 12  15 25 56.712   +42 12 24.53  .01061 .98795  99.3 20.9 1.53 124
2025 02 06 13  15 31 34.085   +41 26 15.36  .01064 .98775  98.2 20.9 1.61 125
2025 02 06 14  15 37 01.208   +40 39 25.84  .01068 .98755  97.0 21.0 1.70 126
2025 02 06 15  15 42 18.189   +39 52 02.84  .01072 .98735  95.8 21.0 1.78 127
2025 02 06 16  15 47 25.173   +39 04 13.00  .01078 .98715  94.7 21.1 1.86 128
2025 02 06 17  15 52 22.334   +38 16 02.77  .01083 .98694  93.6 21.1 1.95 129
2025 02 06 18  15 57 09.874   +37 27 38.30  .01089 .98674  92.4 21.2 2.03 130
2025 02 06 19  16 01 48.014   +36 39 05.47  .01096 .98654  91.3 21.2 2.11 131
2025 02 06 20  16 06 16.993   +35 50 29.83  .01103 .98634  90.3 21.3 2.19 131
2025 02 06 21  16 10 37.060   +35 01 56.62  .01110 .98614  89.2 21.3 2.27 132
2025 02 06 22  16 14 48.475   +34 13 30.71  .01118 .98594  88.1 21.4 2.34 133
2025 02 06 23  16 18 51.505   +33 25 16.67  .01127 .98574  87.1 21.5 2.42 133
2025 02 07 00  16 22 46.418   +32 37 18.68  .01136 .98554  86.0 21.5 2.49 134
2025 02 07 01  16 26 33.486   +31 49 40.60  .01145 .98534  85.0 21.6 2.56 135
2025 02 07 02  16 30 12.978   +31 02 25.95  .01155 .98514  84.0 21.6 2.63 135
2025 02 07 03  16 33 45.162   +30 15 37.91  .01165 .98494  83.1 21.7 2.69 136
2025 02 07 04  16 37 10.301   +29 29 19.34  .01176 .98474  82.1 21.8 2.76 136
2025 02 07 05  16 40 28.655   +28 43 32.80  .01187 .98454  81.2 21.8 2.82 136
2025 02 07 06  16 43 40.478   +27 58 20.54  .01199 .98434  80.3 21.9 2.88 137
2025 02 07 07  16 46 46.016   +27 13 44.55  .01210 .98414  79.4 22.0 2.93 137
2025 02 07 08  16 49 45.510   +26 29 46.53  .01223 .98394  78.5 22.0 2.99 138
2025 02 07 09  16 52 39.193   +25 46 27.96  .01235 .98375  77.6 22.1 3.04 138
2025 02 07 10  16 55 27.291   +25 03 50.05  .01248 .98355  76.8 22.2 3.09 138
2025 02 07 11  16 58 10.023   +24 21 53.82  .01261 .98335  76.0 22.2 3.13 139
2025 02 07 12  17 00 47.598   +23 40 40.09  .01275 .98315  75.2 22.3 3.18 139
2025 02 07 13  17 03 20.219   +23 00 09.48  .01289 .98295  74.4 22.4 3.22 139
2025 02 07 14  17 05 48.081   +22 20 22.45  .01303 .98276  73.6 22.4 3.26 139